TJS-4 1 44637U 19070A 21061.69827497 -.00000176 00000-0 00000-0 0 9998 2 44637 0.0627 120.7162 0002642 264.8324 109.9097 1.00267566 5196 CZ-3B R/B 1 44638U 19070B 21061.02837194 .00042755 -25433-6 53727-3 0 9990 2 44638 26.9670 325.4664 6105747 299.2352 13.6299 3.98187325 15887